Погода в Озере Учум

Россия / Красноярский край     55°04′35″N   89°41′38″E
темп.,
°C
ветер,
м/с
пор.,
м/с
влажн.,
%
обл.,
%
осадки,
мм/ч
давл.,
гПа
погр.,
м
19 мая, ср
ср1901:00+6ссв1192100 0.0 100814
04:00+7ссв1190100 0.0 100655
07:00+6ссв3591100 0.3 1006302
10:00+6всв3588100 2.3 1007707
13:00+6ссв3684100 4.1 1006773
16:00+10с5648100 0.1 10051744
19:00+9с465275 0.1 10061649
22:00+5сз2464100 0.0 100868
20 мая, чт
чт2001:00+3ссз3669100 0.0 1009174
04:00+2ссз2766100 0.0 1010333
07:00+2с4561100 0.0 1010515
10:00+4с5649100 0.0 10101589
13:00+5с5545100 0.1 10111952
16:00+6с6642100 0.1 10112163
19:00+5ссз674542 0.1 10131675
22:00+2сз37570 0.0 1016166
21 мая, пт
пт2101:000сз387071 0.0 1017215
04:00−1зсз2685100 0.0 1019229
07:00+2сз677581 0.0 1021715
10:00+6ссз666284 0.0 10211249
13:00+7ссз565919 0.1 10221194
16:00+10ссз6745100 0.0 10211940
19:00+10ссз55455 0.1 10221796
22:00+5зсз22625 0.0 102510
22 мая, сб
сб2201:00+3зюз226774 0.0 102617
04:00+2зюз2275100 0.0 102718
07:00+5юз2667100 0.0 1027205
10:00+10з454398 0.0 10261987
13:00+11зсз4538100 0.0 10252114
16:00+12зсз5538100 0.0 10242148
19:00+11зсз464693 0.0 10241778
22:00+7зюз226262 0.0 102636
23 мая, вс
вс2301:00+6юз2267100 0.0 102641
04:00+7юз2668100 0.0 1025200
07:00+7юз2268100 0.1 102673
10:00+14з464981 0.0 10241121
13:00+18з4544100 0.0 10231684
16:00+20зсз454014 0.0 10221956
19:00+18з56495 0.0 10221028
22:00+12зюз22685 0.0 102217